Flight Track Log - Related Links

Times and Time Zones

All times are in EDT time to prevent confusion due to time zone crossing. See the EJA307 flight status page for this flight to view local times or setup timezone preferences in your user account.

Time Position Orientation Groundspeed Altitude Reporting Facility
EDT Latitude Longitude Course Direction KTS MPH feet Rate Location/Type
Tue 11:04:25 AM 39.6833 -86.3333 191° South 244 281 3,400  Level Indianapolis TRACON
Tue 11:05:19 AM 39.6167 -86.3500 191° South 260 299 6,500 3,527 Climbing Indianapolis TRACON
Tue 11:06:36 AM 39.5547 -86.2517 129° Southeast 289 333 11,100 2,806 Climbing Indianapolis Center
Tue 11:07:38 AM 39.5775 -86.1358 76° East 347 399 13,000 1,790 Climbing Indianapolis Center
Tue 11:08:40 AM 39.6281 -85.9917 65° Northeast 370 426 14,800 2,226 Climbing Indianapolis Center
Tue 11:09:42 AM 39.6714 -85.8672 98° East 378 435 17,600 2,565 Climbing Indianapolis Center
Tue 11:10:44 AM 39.6981 -85.7322 76° East 386 444 20,100 2,244 Climbing Indianapolis Center
Tue 11:11:45 AM 39.7094 -85.5878 84° East 401 461 22,200 1,902 Climbing Indianapolis Center
Tue 11:12:47 AM 39.7225 -85.4361 84° East 414 476 24,000 1,790 Climbing Indianapolis Center
Tue 11:13:49 AM 39.7375 -85.2528 84° East 432 497 25,900 1,694 Climbing Indianapolis Center
Tue 11:14:51 AM 39.7517 -85.0942 83° East 441 507 27,500 1,548 Climbing Indianapolis Center
Tue 11:15:53 AM 39.7633 -84.9344 85° East 445 512 29,100 1,452 Climbing Indianapolis Center
Tue 11:16:55 AM 39.7769 -84.7731 84° East 450 518 30,500 1,317 Climbing Indianapolis Center
Tue 11:17:56 AM 39.7886 -84.6094 85° East 455 524 31,800 1,268 Climbing Indianapolis Center
Tue 11:18:58 AM 39.8022 -84.4458 84° East 456 525 33,100 1,355 Climbing Indianapolis Center
Tue 11:20:00 AM 39.8172 -84.2478 84° East 458 527 34,600 1,113 Climbing Indianapolis Center
Tue 11:21:02 AM 39.8289 -84.0808 85° East 464 534 35,400 732 Climbing Indianapolis Center
Tue 11:22:03 AM 39.8406 -83.9108 85° East 473 544 36,100 976 Climbing Indianapolis Center
Tue 11:23:05 AM 39.8544 -83.7294 84° East 474 545 37,400 1,306 Climbing Indianapolis Center
Tue 11:24:07 AM 39.8658 -83.5631 85° East 464 534 38,800 1,355 Climbing Indianapolis Center
Tue 11:25:09 AM 39.8744 -83.4028 86° East 449 517 40,200 1,065 Climbing Indianapolis Center
Tue 11:26:11 AM 39.8867 -83.2447 84° East 439 505 41,000 390 Climbing Indianapolis Center
Tue 11:27:12 AM 39.8961 -83.0825 86° East 447 514 41,000  Level Indianapolis Center
Tue 11:28:14 AM 39.9069 -82.9186 85° East 452 520 41,000  Level Indianapolis Center
Tue 11:29:16 AM 39.9161 -82.7542 86° East 455 524 41,000  Level Indianapolis Center
Tue 11:30:18 AM 39.9286 -82.5547 85° East 459 528 41,000  Level Indianapolis Center
Tue 11:31:20 AM 39.9372 -82.3875 86° East 463 533 41,000  Level Indianapolis Center
Tue 11:32:21 AM 39.9467 -82.2208 86° East 460 529 41,000  Level Indianapolis Center
Tue 11:33:23 AM 39.9558 -82.0536 86° East 461 531 41,000  Level Indianapolis Center
Tue 11:34:25 AM 39.9644 -81.8847 86° East 464 534 41,000  Level Indianapolis Center
Tue 11:35:27 AM 39.9744 -81.6981 86° East 463 533 41,000  Level Indianapolis Center
Tue 11:36:28 AM 39.9825 -81.5319 86° East 464 534 41,000  Level Indianapolis Center
Tue 11:37:30 AM 39.9581 -81.3997 104° East 426 490 41,000  Level Indianapolis Center
Tue 11:38:32 AM 39.9217 -81.2611 109° East 405 466 41,000  Level Indianapolis Center
Tue 11:39:33 AM 39.8756 -81.0792 108° East 423 487 41,000  Level Indianapolis Center
Tue 11:40:35 AM 39.8350 -80.9211 108° East 443 510 41,000  Level Indianapolis Center
Tue 11:41:37 AM 39.7936 -80.7611 109° East 456 525 41,000  Level Indianapolis Center
Tue 11:42:36 AM 39.7544 -80.5992 107° East 447 514 41,000 -202 Level Cleveland Center
Tue 11:43:36 AM 39.7128 -80.4428 109° East 447 514 40,600 -1,400 Descending Cleveland Center
Tue 11:44:36 AM 39.6708 -80.2864 109° East 447 514 38,200 -2,284 Descending Cleveland Center
Tue 11:46:32 AM 39.5975 -80.0006 108° East 456 525 33,900 -2,305 Descending Washington Center
Tue 11:47:33 AM 39.5575 -79.8444 108° East 456 525 31,400 -2,479 Descending Washington Center
Tue 11:48:33 AM 39.5258 -79.6758 104° East 463 533 28,900 -2,182 Descending Washington Center
Tue 11:49:34 AM 39.4958 -79.5128 103° East 468 539 27,000 -958 Descending Washington Center
Tue 11:50:32 AM 39.4675 -79.3525 103° East 457 526 27,000 -864 Level Washington Center
Tue 11:51:32 AM 39.4369 -79.1950 104° East 457 526 25,300 -1,900 Descending Washington Center
Tue 11:52:32 AM 39.4097 -79.0514 104° East 435 501 23,200 -1,983 Descending Washington Center
Tue 11:53:33 AM 39.3847 -78.9078 103° East 419 482 21,300 -1,967 Descending Washington Center
Tue 11:54:34 AM 39.3611 -78.7725 103° East 396 456 19,200 -2,017 Descending Washington Center
Tue 11:55:32 AM 39.3375 -78.6453 103° East 374 430 17,300 -1,916 Descending Washington Center
Tue 11:56:33 AM 39.3156 -78.5211 103° East 368 423 15,400 -1,721 Descending Washington Center
Tue 11:57:34 AM 39.2933 -78.4022 104° East 356 410 13,800 -1,714 Descending Washington Center
Tue 11:58:32 AM 39.2478 -78.2931 118° Southeast 343 395 12,000 -1,664 Descending Washington Center
Tue 11:59:33 AM 39.1997 -78.2031 125° Southeast 329 379 10,500 -984 Descending Washington Center
Tue 12:00:34 PM 39.1539 -78.1156 124° Southeast 310 357 10,000 -353 Descending Washington Center
Tue 12:01:32 PM 39.1036 -78.0256 126° Southeast 305 351 9,800 -908 Descending Washington Center
Tue 12:02:33 PM 39.0572 -77.9358 124° Southeast 305 351 8,200 -1,537 Descending Washington Center
Tue 12:03:33 PM 39.0092 -77.8408 123° Southeast 292 336 6,700 -1,091 Descending Washington Center
Tue 12:04:34 PM 38.9689 -77.7542 121° Southeast 287 330 6,000 -353 Descending Washington Center
Tue 12:05:32 PM 38.9561 -77.6603 100° East 276 318 6,000  Level Washington Center
Tue 12:06:54 PM 39.0333 -77.5667 43° Northeast 259 298 6,000 -634 Level Potomac TRACON
Tue 12:07:54 PM 39.0833 -77.5667 360° North 222 255 4,500 -1,000 Descending Potomac TRACON
Tue 12:08:54 PM 39.1333 -77.5500 14° North 234 269 4,000 -421 Descending Potomac TRACON
Tue 12:09:48 PM 39.1333 -77.4833 90° East 238 274 3,700 -842 Descending Potomac TRACON
Tue 12:10:48 PM 39.0833 -77.4500 153° Southeast 220 253 2,400 -850 Descending Potomac TRACON
Tue 12:11:48 PM 39.0333 -77.4500 180° South 175 201 2,000 -700 Descending Potomac TRACON
Tue 12:12:48 PM 39.0000 -77.4667 201° Southwest 126 145 1,000 -1,000 Descending Potomac TRACON
Tue 12:14:00 PM 38.9474 -77.4599 165° South  Level Estimated
Tue 12:21:00 PM 38.9474 -77.4599 165° South  Level Estimated
Tue 12:22:00 PM 38.9474 -77.4599 165° South  Level Estimated
Tue 12:23:00 PM 38.9474 -77.4599 165° South  Level Estimated

Login

Don't have an account? Register now (free) for customized features, flight alerts, and more!